Charlevoix, MI

2:28 AM EST on January 21, 2017 (GMT -0500)
Charlevoix

Weather History for KCVX - November, 2013

Change the Weather History Date:

Friday, November 29, 2013

  Actual Average Record
Temperature  
Mean Temperature 20 °F -  
Max Temperature 30 °F 44 °F 59 °F (2006)
Min Temperature 11 °F 32 °F 11 °F (2013)
Degree Days  
Heating Degree Days 44    
Moisture  
Dew Point 17 °F    
Average Humidity 81    
Maximum Humidity 95    
Minimum Humidity 66    
Precipitation  
Precipitation 0.00 in - - ()
Sea Level Pressure  
Sea Level Pressure 30.54 in    
Wind  
Wind Speed 6 mph (SSE)    
Max Wind Speed 9 mph    
Max Gust Speed -    
Visibility 10 miles    
Events      
Averages and records for this station are not official NWS values.
T = Trace of Precipitation, MM = Missing Value Source: NWS Daily Summary

Daily Weather History Graph

Daily Weather History Graph

Search for Another Location

Airport or City:

Trip Planner

Search our weather history database for the weather conditions in past years. The results will help you decide how hot, cold, wet, or windy it might be!

Date:

Astronomy

Nov. 29, 2013 Rise Set
Actual Time 7:58 AM EST 5:00 PM EST
Civil Twilight 7:24 AM EST 5:33 PM EST
Nautical Twilight 6:48 AM EST 6:10 PM EST
Astronomical Twilight 6:12 AM EST 6:46 PM EST
Moon 3:53 AM EST (11/29) 2:53 PM EST (11/29)
Length of Visible Light 10h 09m
Length of Day
9h 02m
Waning Crescent, 14% of the Moon is Illuminated
Nov 29
Waning Crescent
Dec 2
New
Dec 9
First Quarter
Dec 17
Full
Dec 25
Last Quarter

Hourly Weather History & Observations

Time (EST) Temp. Windchill Dew Point Humidity Pressure Visibility Wind Dir Wind Speed Gust Speed Precip Events Conditions
12:15 AM 19.4 °F 14.3 °F 15.6 °F 85% 30.46 in 10.0 mi SE 3.5 mph - N/A   Overcast
12:34 AM 19.2 °F 12.5 °F 15.4 °F 85% 30.46 in 10.0 mi SE 4.6 mph - N/A   Overcast
12:55 AM 19.4 °F 12.8 °F 15.3 °F 84% 30.47 in 10.0 mi SE 4.6 mph - N/A   Overcast
1:15 AM 18.1 °F 12.9 °F 14.5 °F 86% 30.47 in 10.0 mi SE 3.5 mph - N/A   Overcast
1:34 AM 17.8 °F 12.5 °F 14.9 °F 88% 30.47 in 10.0 mi SE 3.5 mph - N/A   Overcast
1:55 AM 18.3 °F 11.5 °F 15.6 °F 89% 30.47 in 10.0 mi SE 4.6 mph - N/A   Overcast
2:14 AM 18.3 °F 13.1 °F 15.6 °F 89% 30.48 in 10.0 mi SE 3.5 mph - N/A   Overcast
2:35 AM 18.1 °F 12.9 °F 15.6 °F 90% 30.49 in 10.0 mi SE 3.5 mph - N/A   Overcast
2:55 AM 17.2 °F 11.9 °F 14.9 °F 91% 30.50 in 10.0 mi SE 3.5 mph - N/A   Overcast
3:14 AM 16.9 °F 9.8 °F 15.4 °F 94% 30.50 in 10.0 mi SE 4.6 mph - N/A   Mostly Cloudy
3:35 AM 15.8 °F 8.6 °F 14.5 °F 95% 30.51 in 10.0 mi SE 4.6 mph - N/A   Mostly Cloudy
3:55 AM 15.6 °F 8.3 °F 14.2 °F 94% 30.51 in 10.0 mi SE 4.6 mph - N/A   Scattered Clouds
4:14 AM 15.8 °F 8.6 °F 14.5 °F 95% 30.52 in 10.0 mi SE 4.6 mph - N/A   Scattered Clouds
4:35 AM 15.3 °F 7.9 °F 14.0 °F 95% 30.52 in 10.0 mi SSE 4.6 mph - N/A   Scattered Clouds
4:54 AM 14.9 °F 7.5 °F 13.8 °F 95% 30.53 in 10.0 mi SE 4.6 mph - N/A   Scattered Clouds
5:15 AM 13.6 °F 6.0 °F 12.2 °F 94% 30.53 in 10.0 mi SE 4.6 mph - N/A   Mostly Cloudy
5:35 AM 14.0 °F 5.1 °F 12.7 °F 95% 30.53 in 10.0 mi SSE 5.8 mph - N/A   Scattered Clouds
5:54 AM 14.0 °F 6.5 °F 12.7 °F 95% 30.54 in 10.0 mi SSE 4.6 mph - N/A   Clear
6:15 AM 14.0 °F 5.1 °F 12.6 °F 94% 30.55 in 10.0 mi SE 5.8 mph - N/A   Clear
6:35 AM 13.1 °F 4.0 °F 11.7 °F 94% 30.55 in 10.0 mi SE 5.8 mph - N/A   Clear
6:54 AM 13.6 °F 4.6 °F 12.0 °F 93% 30.56 in 10.0 mi SE 5.8 mph - N/A   Clear
7:15 AM 12.6 °F 2.2 °F 10.8 °F 92% 30.57 in 10.0 mi SSE 6.9 mph - N/A   Clear
7:35 AM 12.6 °F 3.4 °F 10.8 °F 92% 30.58 in 10.0 mi SE 5.8 mph - N/A   Clear
7:54 AM 11.8 °F 0.3 °F 9.9 °F 92% 30.58 in 10.0 mi SE 8.1 mph - N/A   Clear
8:15 AM 11.8 °F 1.3 °F 9.9 °F 92% 30.59 in 10.0 mi ESE 6.9 mph - N/A   Clear
8:35 AM 11.5 °F 2.1 °F 9.3 °F 91% 30.59 in 10.0 mi SE 5.8 mph - N/A   Clear
8:54 AM 12.7 °F 3.6 °F 10.4 °F 90% 30.60 in 10.0 mi SE 5.8 mph - N/A   Clear
9:15 AM 13.8 °F 3.7 °F 11.3 °F 90% 30.60 in 10.0 mi SE 6.9 mph - N/A   Clear
9:34 AM 15.6 °F 5.9 °F 12.7 °F 88% 30.61 in 10.0 mi SE 6.9 mph - N/A   Clear
9:55 AM 16.7 °F 6.2 °F 13.1 °F 86% 30.61 in 10.0 mi SE 8.1 mph - N/A   Clear
10:15 AM 18.5 °F 11.7 °F 14.4 °F 84% 30.62 in 10.0 mi SE 4.6 mph - N/A   Clear
10:34 AM 21.0 °F 10.6 °F 15.8 °F 80% 30.62 in 10.0 mi SE 9.2 mph - N/A   Clear
10:55 AM 21.9 °F 12.5 °F 15.6 °F 77% 30.62 in 10.0 mi SSE 8.1 mph - N/A   Clear
11:15 AM 23.0 °F 13.9 °F 15.8 °F 74% 30.62 in 10.0 mi SE 8.1 mph - N/A   Clear
11:34 AM 24.1 °F 15.2 °F 16.5 °F 73% 30.61 in 10.0 mi SE 8.1 mph - N/A   Clear
11:55 AM 25.2 °F 16.5 °F 16.9 °F 71% 30.61 in 10.0 mi SSE 8.1 mph - N/A   Clear
12:15 PM 26.2 °F 19.6 °F 17.6 °F 70% 30.60 in 10.0 mi SE 5.8 mph - N/A   Clear
12:34 PM 27.1 °F 19.7 °F 18.3 °F 69% 30.60 in 10.0 mi SE 6.9 mph - N/A   Clear
12:55 PM 28.0 °F 21.7 °F 18.9 °F 68% 30.59 in 10.0 mi SE 5.8 mph - N/A   Clear
1:15 PM 28.8 °F 20.9 °F 19.0 °F 67% 30.59 in 10.0 mi SE 8.1 mph - N/A   Clear
1:34 PM 29.3 °F 23.2 °F 19.4 °F 67% 30.58 in 10.0 mi SSE 5.8 mph - N/A   Clear
1:55 PM 29.7 °F 22.0 °F 19.9 °F 67% 30.57 in 10.0 mi SE 8.1 mph - N/A   Scattered Clouds
2:15 PM 30.2 °F 22.6 °F 20.1 °F 66% 30.57 in 10.0 mi South 8.1 mph - N/A   Scattered Clouds
2:35 PM 30.6 °F 25.8 °F 20.3 °F 66% 30.57 in 10.0 mi South 4.6 mph - N/A   Scattered Clouds
2:55 PM 30.4 °F 23.6 °F 20.7 °F 67% 30.56 in 10.0 mi SSW 6.9 mph - N/A   Mostly Cloudy
3:14 PM 29.8 °F 23.9 °F 20.3 °F 68% 30.56 in 10.0 mi South 5.8 mph - N/A   Scattered Clouds
3:35 PM 29.3 °F 22.3 °F 20.8 °F 71% 30.56 in 10.0 mi SSE 6.9 mph - N/A   Mostly Cloudy
3:55 PM 29.3 °F 23.2 °F 21.0 °F 71% 30.56 in 10.0 mi South 5.8 mph - N/A   Overcast
4:14 PM 29.1 °F 23.0 °F 21.2 °F 72% 30.56 in 10.0 mi SSE 5.8 mph - N/A   Overcast
4:35 PM 29.1 °F 22.1 °F 21.6 °F 73% 30.56 in 10.0 mi SSE 6.9 mph - N/A   Overcast
4:55 PM 29.1 °F 24.1 °F 21.7 °F 74% 30.55 in 10.0 mi SE 4.6 mph - N/A   Overcast
5:14 PM 28.9 °F 22.8 °F 21.7 °F 74% 30.55 in 10.0 mi SSE 5.8 mph - N/A   Overcast
5:35 PM 28.9 °F 21.9 °F 21.9 °F 75% 30.55 in 10.0 mi SSE 6.9 mph - N/A   Overcast
5:55 PM 29.1 °F 23.0 °F 22.5 °F 76% 30.55 in 10.0 mi SSE 5.8 mph - N/A   Overcast
6:14 PM 29.3 °F 22.3 °F 22.8 °F 77% 30.55 in 10.0 mi SSE 6.9 mph - N/A   Overcast
6:35 PM 29.3 °F 22.3 °F 23.0 °F 77% 30.54 in 10.0 mi SSE 6.9 mph - N/A   Overcast
6:55 PM 29.3 °F 21.5 °F 23.2 °F 78% 30.54 in 10.0 mi SSE 8.1 mph - N/A   Overcast
7:15 PM 29.1 °F 21.3 °F 23.0 °F 78% 30.53 in 10.0 mi SSE 8.1 mph - N/A   Overcast
7:35 PM 29.1 °F 20.6 °F 23.0 °F 78% 30.53 in 10.0 mi South 9.2 mph - N/A   Overcast
7:55 PM 28.9 °F 21.1 °F 23.0 °F 78% 30.52 in 10.0 mi SSE 8.1 mph - N/A   Overcast
8:15 PM 28.8 °F 20.9 °F 22.5 °F 77% 30.53 in 10.0 mi South 8.1 mph - N/A   Overcast
8:35 PM 28.4 °F 20.4 °F 22.1 °F 77% 30.52 in 10.0 mi SSE 8.1 mph - N/A   Overcast
8:54 PM 28.2 °F 19.5 °F 21.7 °F 77% 30.52 in 10.0 mi SSE 9.2 mph - N/A   Overcast
9:15 PM 28.0 °F 19.3 °F 21.6 °F 77% 30.51 in 10.0 mi SSE 9.2 mph - N/A   Overcast
9:35 PM 27.9 °F 21.5 °F 21.4 °F 77% 30.51 in 10.0 mi SSE 5.8 mph - N/A   Overcast
9:54 PM 27.7 °F 19.6 °F 20.8 °F 75% 30.50 in 10.0 mi SSE 8.1 mph - N/A   Mostly Cloudy
10:15 PM 27.5 °F 19.3 °F 19.9 °F 73% 30.50 in 10.0 mi SSE 8.1 mph - N/A   Scattered Clouds
10:35 PM 27.5 °F 19.3 °F 20.1 °F 74% 30.49 in 10.0 mi SSE 8.1 mph - N/A   Mostly Cloudy
10:54 PM 27.5 °F 19.3 °F 19.8 °F 73% 30.48 in 10.0 mi SSE 8.1 mph - N/A   Mostly Cloudy
11:15 PM 27.3 °F 19.9 °F 19.4 °F 72% 30.47 in 10.0 mi SE 6.9 mph - N/A   Mostly Cloudy
11:35 PM 27.1 °F 18.9 °F 19.2 °F 72% 30.47 in 10.0 mi SSE 8.1 mph - N/A   Overcast
11:54 PM 27.0 °F 18.0 °F 19.2 °F 73% 30.47 in 10.0 mi SSE 9.2 mph - N/A   Scattered Clouds